CAPE
0 0 0 0 0 0 0 22 0 0 0 0 0 0 0 0 0 0 0 0 0 0 0 0 0 47 237 241 353 490 567 576 371 34 0 0 0 0 0 0 0 0 3 35 160 114 5 61 69
0 0 0 3 0 9 0 0 0 0 0 0 0 0 0 0 0 0 0 0 0 0 0 0 0 0 53 340 683 551 635 469 299 116 31 36 21 0 0 0 0 0 1 14 150 203 157 49 117
0 0 0 16 35 37 3 0 0 0 0 0 0 0 0 0 0 0 0 0 0 0 0 0 0 24 361 750 589 274 76 53 0 0 6 83 75 63 39 40 7 3 4 20 110 192 219 102 184
0 0 0 0 4 1 0 0 0 0 0 0 0 0 0 0 0 0 0 0 0 0 0 0 0 0 0 958 1177 551 122 21 0 0 0 42 1 48 65 71 77 21 9 44 142 219 175 165 106
0 0 0 37 49 34 0 1 0 0 0 0 0 0 0 0 0 0 0 0 0 0 0 0 0 0 0 427 692 400 243 85 86 59 61 128 129 99 37 29 73 67 34 5 70 200 291 175 200
0 0 0 25 30 2 8 0 0 0 0 0 0 0 0 0 0 0 0 0 0 0 0 0 0 0 0 0 0 0 0 0 0 0 5 34 5 0 1 1 61 120 64 19 27 46 98 217 110
0 0 3 23 32 29 8 0 0 0 0 0 0 0 0 0 0 0 0 0 0 0 0 0 0 0 0 0 0 0 0 0 0 0 0 0 1 18 34 6 143 135 131 64 5 0 5 159 97
0 0 0 1 22 34 2 0 0 0 0 0 0 0 0 0 0 0 0 0 0 0 0 0 0 0 0 0 0 0 0 0 0 0 0 5 15 47 88 101 127 163 148 69 4 8 0 81 76
0 0 0 1 3 19 1 1 1 0 0 0 0 0 0 0 0 0 0 0 0 0 0 0 0 0 0 0 0 0 5 3 0 0 1 10 11 36 83 266 165 238 162 150 99 90 0 124 135
0 0 0 0 0 0 0 0 5 6 1 0 0 0 0 0 0 0 0 0 0 0 0 0 0 0 0 0 1 9 21 9 7 5 5 7 10 15 152 111 185 265 266 190 62 43 86 114 129
0 0 0 0 0 0 0 0 3 0 0 1 0 0 0 0 0 0 0 0 0 0 0 0 0 0 0 0 1 5 31 17 9 9 7 5 5 39 165 183 109 200 226 118 32 31 17 1 63
0 0 0 0 0 0 0 0 0 0 0 0 0 0 0 0 0 0 0 0 0 0 0 0 0 0 7 1 1 24 25 28 26 17 48 10 80 116 116 230 215 136 230 199 142 86 3 3 157
0 0 0 0 0 0 0 0 0 0 0 0 0 0 0 0 0 0 0 0 0 0 0 0 0 9 17 5 5 20 11 9 46 21 31 33 139 216 89 115 92 85 129 219 165 176 51 191 209
0 0 0 0 0 0 0 0 0 0 0 0 0 0 0 0 0 0 0 0 0 0 0 0 0 12 4 9 47 30 34 63 57 51 10 12 133 218 208 252 105 149 46 151 304 281 126 122 494
0 0 0 0 0 0 0 0 0 0 0 0 0 0 0 0 0 0 0 0 0 0 0 0 0 0 2 17 46 44 37 61 111 108 107 119 163 362 390 215 176 285 333 264 419 295 183 347 485
0 0 0 0 0 0 0 0 1 0 0 0 0 0 0 0 0 0 0 0 0 0 0 0 0 0 6 40 37 84 65 172 174 129 73 165 174 246 464 253 253 116 246 251 323 180 127 306 271
0 0 0 2 0 0 0 0 0 0 0 0 0 0 0 0 0 0 0 0 0 0 0 0 1 0 15 41 96 133 265 291 220 43 24 41 272 216 357 606 426 426 387 409 339 275 253 231 221
0 4 8 0 35 2 0 0 0 2 0 0 0 0 0 0 0 0 0 0 0 0 0 0 0 20 23 49 50 250 316 210 211 49 1 3 125 218 332 568 591 489 482 490 410 276 335 229 154
0 3 12 25 30 4 16 0 0 4 0 0 0 0 0 0 0 0 0 0 0 0 0 3 0 6 0 26 148 64 130 24 35 53 7 33 68 129 245 643 500 501 488 559 517 222 215 185 201
0 0 0 0 10 19 10 0 0 0 0 0 0 0 0 0 0 0 0 0 0 0 0 0 0 14 52 231 351 277 150 98 25 103 65 68 87 139 256 407 283 315 490 523 651 484 252 219 243
0 0 0 0 12 24 3 0 0 0 0 0 0 0 0 0 0 0 0 0 0 0 0 0 2 137 387 498 418 524 521 274 350 224 128 155 110 157 255 336 212 241 308 445 574 648 449 421 570
0 0 0 0 1 2 1 0 0 0 0 0 0 0 0 15 0 0 0 0 0 0 0 0 40 243 414 234 110 368 434 359 315 357 230 152 153 184 238 228 280 269 257 354 526 584 458 360 407
0 0 0 0 0 0 0 0 0 0 2 0 0 0 9 27 0 1 0 0 0 0 0 0 55 209 483 214 144 179 326 256 347 170 104 143 183 162 204 246 281 349 360 573 700 680 668 402 299
0 0 0 0 0 0 0 0 0 3 0 0 0 3 65 36 0 0 0 0 0 0 0 0 8 11 331 269 69 268 229 134 96 9 20 51 130 157 237 274 358 503 705 710 631 812 582 546 673
0 0 0 0 0 0 0 0 0 0 0 0 0 26 105 37 0 0 0 0 0 0 0 0 0 0 0 66 13 81 104 163 164 120 12 37 77 41 202 331 400 416 588 595 683 657 612 763 530
0 0 0 0 7 30 5 0 5 0 0 0 0 129 233 55 0 0 0 0 0 0 0 0 0 0 0 0 5 17 4 154 114 0 0 10 39 169 211 244 352 440 525 557 627 621 599 437 65
0 0 0 0 0 1 26 15 1 0 0 2 46 228 255 59 0 0 0 0 0 0 0 0 0 0 0 0 0 0 2 87 490 394 36 48 245 140 210 230 338 374 436 485 689 545 470 455 292
0 0 0 0 0 5 28 14 21 0 10 131 231 310 189 6 0 0 0 0 0 0 0 0 0 0 0 0 0 0 0 21 63 26 58 165 50 263 167 262 120 273 420 559 757 609 213 10 67
0 0 0 0 0 6 29 29 4 0 6 63 336 335 73 0 0 0 0 0 0 0 0 0 0 0 0 0 0 0 0 0 0 26 89 36 129 64 182 155 221 198 240 483 441 268 201 84 31
0 0 0 0 0 0 22 92 0 0 0 61 298 324 15 0 0 0 0 0 0 0 0 0 0 0 0 0 0 0 0 0 0 0 72 135 143 83 16 81 185 136 207 183 292 275 74 16 22
CIN
-0 -0 -0 -0 -0 -0 -0 -11 -0 -0 -0 -0 -0 -0 -0 -0 -0 -0 -0 -0 -0 -0 -0 -0 -0 -119 -96 -70 -40 -22 -4 -0 -14 -5 -0 -0 -0 -0 -0 -0 -0 -0 -0 -88 -6 -25 -11 -18 -21
-0 -0 -0 -27 -0 -8 -15 -0 -0 -0 -0 -0 -0 -0 -0 -0 -0 -0 -0 -0 -0 -0 -0 -0 -0 -0 -131 -42 -23 -13 -4 -4 -23 -0 -0 -0 -0 -0 -0 -0 -0 -0 -0 -14 -20 -6 -3 -25 -3
-0 -0 -0 -5 -5 -10 -8 -10 -0 -0 -0 -0 -0 -0 -0 -0 -0 -0 -0 -0 -0 -0 -0 -0 -0 -44 -49 -19 -14 -26 -19 -5 -0 -0 -0 -0 -3 -0 -1 -1 -12 -0 -0 -25 -38 -18 -6 -11 -1
-0 -0 -0 -0 -4 -6 -0 -0 -0 -0 -0 -0 -0 -0 -0 -0 -0 -0 -0 -0 -0 -0 -0 -0 -0 -0 -0 -17 -2 -4 -36 -3 -0 -0 -0 -8 -0 -0 -0 -2 -0 -1 -0 -75 -18 -15 -21 -6 -9
-0 -0 -0 -4 -6 -8 -0 -2 -0 -0 -0 -0 -0 -0 -0 -0 -0 -0 -0 -0 -0 -0 -0 -0 -0 -0 -0 -24 -2 -1 -8 -9 -4 -1 -0 -1 -2 -0 -0 -0 -0 -6 -0 -0 -59 -12 -0 -8 -1
-0 -0 -0 -5 -14 -55 -8 -0 -0 -0 -0 -3 -0 -0 -0 -0 -0 -0 -0 -0 -0 -0 -0 -0 -0 -0 -0 -0 -0 -0 -0 -0 -0 -0 -5 -31 -3 -0 -0 -0 -0 -0 -0 -0 -125 -119 -42 -2 -24
-0 -0 -4 -3 -6 -9 -16 -0 -0 -0 -0 -1 -0 -0 -0 -0 -0 -0 -0 -0 -0 -0 -0 -0 -0 -0 -0 -0 -0 -0 -0 -0 -0 -0 -0 -0 -0 -72 -27 -0 -0 -1 -0 -0 -0 -0 -44 -10 -34
-0 -0 -0 -3 -8 -7 -11 -0 -0 -0 -0 -0 -0 -0 -0 -0 -0 -0 -0 -0 -0 -0 -0 -0 -0 -0 -0 -0 -0 -0 -0 -0 -0 -0 -0 -0 -0 -45 -26 -8 -1 -0 -1 -1 -0 -1 -0 -47 -48
-0 -0 -0 -4 -10 -7 -2 -3 -7 -0 -0 -0 -0 -0 -0 -0 -0 -0 -0 -0 -0 -0 -0 -0 -0 -0 -0 -0 -0 -0 -1 -2 -0 -0 -0 -0 -0 -61 -40 -1 -1 -0 -5 -1 -3 -0 -0 -39 -8
-0 -0 -0 -0 -0 -0 -0 -4 -4 -9 -2 -0 -0 -0 -0 -0 -0 -0 -0 -0 -0 -0 -0 -0 -0 -0 -0 -0 -1 -1 -2 -4 -4 -0 -0 -0 -1 -23 -6 -13 -8 -1 -1 -2 -3 -7 -0 -31 -13
-0 -0 -0 -0 -0 -0 -0 -0 -2 -0 -0 -5 -0 -0 -0 -0 -0 -0 -0 -0 -0 -0 -0 -0 -0 -0 -0 -0 -2 -2 -0 -3 -2 -5 -10 -2 -93 -55 -3 -4 -6 -2 -2 -1 -3 -3 -13 -0 -68
-0 -0 -0 -0 -0 -0 -0 -0 -0 -0 -0 -0 -0 -0 -0 -0 -0 -0 -0 -0 -0 -0 -0 -0 -0 -0 -1 -1 -1 -1 -1 -1 -2 -9 -13 -6 -4 -7 -13 -1 -4 -2 -1 -2 -3 -2 -1 -1 -8
-0 -0 -0 -0 -0 -0 -0 -0 -0 -0 -0 -0 -0 -0 -0 -0 -0 -0 -0 -0 -0 -0 -0 -0 -0 -82 -42 -1 -1 -1 -7 -6 -1 -1 -0 -1 -6 -1 -1 -3 -11 -8 -3 -3 -10 -1 -6 -6 -4
-0 -0 -0 -0 -0 -0 -0 -0 -0 -0 -0 -0 -0 -0 -0 -0 -0 -0 -0 -0 -0 -0 -0 -0 -0 -103 -0 -3 -3 -4 -2 -5 -4 -1 -1 -0 -1 -1 -3 -0 -4 -2 -13 -4 -6 -1 -1 -2 -2
-0 -0 -0 -0 -0 -0 -0 -0 -0 -0 -0 -0 -0 -0 -0 -0 -0 -0 -0 -0 -0 -0 -0 -0 -0 -0 -1 -15 -86 -1 -2 -2 -2 -3 -1 -3 -1 -0 -0 -1 -1 -2 -9 -7 -2 -7 -2 -1 -6
-0 -0 -0 -0 -0 -0 -0 -0 -7 -0 -0 -0 -0 -0 -0 -0 -0 -0 -0 -0 -0 -0 -0 -0 -0 -0 -1 -169 -1 -50 -3 -5 -0 -0 -26 -8 -1 -2 -0 -0 -0 -15 -10 -18 -5 -1 -4 -1 -4
-0 -0 -0 -1 -0 -0 -0 -0 -0 -0 -0 -0 -0 -0 -0 -0 -0 -0 -0 -0 -0 -0 -0 -0 -22 -0 -117 -141 -65 -10 -0 -0 -1 -15 -40 -32 -0 -2 -1 -0 -0 -0 -7 -9 -2 -3 -2 -5 -2
-0 -5 -5 -0 -7 -18 -0 -0 -0 -4 -0 -0 -0 -0 -0 -0 -0 -0 -0 -0 -0 -0 -0 -0 -0 -122 -130 -96 -68 -1 -0 -1 -0 -3 -56 -51 -1 -1 -7 -1 -0 -1 -4 -4 -4 -5 -5 -4 -3
-0 -2 -4 -5 -9 -9 -5 -0 -0 -17 -0 -0 -0 -0 -0 -0 -0 -0 -0 -0 -0 -0 -0 -217 -0 -91 -0 -114 -5 -29 -7 -2 -3 -14 -10 -0 -1 -1 -0 -0 -1 -1 -1 -3 -4 -8 -8 -7 -5
-0 -0 -0 -0 -4 -4 -4 -0 -0 -0 -0 -0 -0 -0 -0 -0 -0 -0 -0 -0 -0 -0 -0 -0 -0 -195 -89 -4 -1 -4 -2 -4 -6 -0 -2 -1 -0 -2 -3 -0 -1 -1 -1 -1 -1 -11 -14 -12 -4
-0 -0 -0 -0 -2 -7 -2 -0 -0 -0 -0 -0 -0 -0 -0 -0 -0 -0 -0 -0 -0 -0 -0 -0 -49 -64 -4 -2 -2 -0 -0 -1 -1 -1 -1 -0 -0 -1 -0 -0 -1 -1 -2 -6 -8 -3 -4 -8 -8
-0 -0 -0 -0 -3 -4 -3 -0 -0 -0 -0 -0 -0 -0 -0 -156 -0 -0 -148 -0 -0 -0 -0 -0 -134 -15 -1 -15 -5 -2 -1 -1 -1 -0 -1 -1 -0 -0 -0 -1 -1 -1 -3 -6 -3 -7 -5 -2 -0
-0 -0 -0 -2 -0 -0 -0 -0 -0 -0 -4 -0 -0 -0 -136 -133 -0 -141 -0 -0 -0 -0 -0 -0 -119 -20 -1 -4 -7 -2 -1 -1 -2 -5 -3 -2 -1 -1 -11 -2 -1 -1 -2 -2 -1 -1 -2 -5 -1
-0 -0 -0 -0 -0 -0 -0 -0 -0 -3 -2 -0 -0 -13 -53 -106 -0 -0 -0 -0 -0 -0 -0 -0 -64 -123 -1 -1 -10 -1 -1 -0 -16 -15 -9 -4 -4 -0 -0 -0 -0 -1 -0 -0 -2 -1 -6 -5 -3
-0 -0 -0 -0 -0 -0 -2 -0 -0 -0 -0 -0 -0 -9 -37 -127 -0 -0 -0 -0 -0 -0 -0 -0 -0 -0 -0 -14 -23 -8 -3 -1 -0 -1 -20 -6 -2 -14 -0 -0 -2 -2 -0 -1 -0 -6 -6 -2 -16
-0 -0 -0 -0 -6 -5 -7 -0 -3 -0 -0 -0 -3 -18 -38 -129 -0 -0 -0 -0 -0 -0 -0 -0 -0 -0 -0 -0 -15 -36 -1 -1 -2 -16 -0 -28 -8 -0 -0 -0 -4 -3 -1 -1 -1 -4 -5 -17 -34
-0 -0 -0 -0 -0 -7 -8 -5 -1 -0 -0 -1 -2 -28 -66 -152 -0 -0 -0 -0 -0 -0 -0 -0 -0 -0 -0 -0 -0 -0 -0 -2 -1 -1 -16 -8 -1 -4 -0 -0 -0 -0 -0 -0 -0 -2 -2 -0 -8
-0 -0 -0 -0 -0 -5 -5 -4 -6 -0 -5 -3 -11 -29 -101 -115 -0 -0 -0 -0 -0 -0 -0 -0 -0 -0 -0 -0 -0 -0 -0 -3 -5 -11 -8 -15 -32 -1 -12 -0 -2 -1 -1 -1 -0 -1 -32 -39 -25
-0 -0 -0 -0 -0 -6 -4 -5 -21 -1 -4 -3 -2 -21 -102 -0 -0 -0 -0 -0 -0 -0 -0 -0 -0 -0 -0 -0 -0 -0 -0 -1 -0 -9 -16 -54 -14 -41 -17 -3 -0 -4 -7 -0 -3 -31 -19 -53 -70
-0 -0 -0 -0 -0 -0 -6 -4 -0 -0 -1 -4 -1 -19 -26 -0 -0 -0 -0 -0 -0 -0 -0 -0 -0 -0 -0 -0 -0 -0 -0 -0 -0 -0 -11 -24 -16 -25 -51 -10 -0 -0 -0 -4 -7 -4 -25 -57 -78
Wind_Speed
15 15 12 9 13 10 13 14 15 19 17 15 18 21 26 26 24 23 15 16 17 16 14 13 10 10 10 11 12 13 15 15 17 17 17 18 21 25 28 29 28 27 26 26 27 26 24 24 25
13 12 11 12 16 15 19 18 21 23 22 18 17 19 20 22 22 20 17 15 15 16 16 16 10 11 11 12 13 15 15 17 19 18 18 20 22 26 29 30 29 29 28 26 26 25 25 24 24
10 10 16 13 12 19 23 21 25 23 19 16 17 18 21 21 19 21 18 15 15 16 15 15 15 14 13 13 14 15 17 19 22 23 23 24 26 28 30 31 31 30 29 28 27 26 26 24 23
11 10 12 16 20 18 19 25 26 25 16 17 20 22 17 18 18 18 16 15 16 17 18 17 16 17 15 14 14 16 20 22 25 26 26 27 29 31 34 33 31 30 29 29 28 29 27 26 25
7 13 18 18 16 21 19 24 25 23 20 16 16 22 22 15 17 16 16 16 17 20 21 21 19 19 18 17 18 21 23 24 24 25 25 27 29 30 31 33 33 32 29 29 29 28 28 26 28
11 10 23 23 22 15 19 21 22 22 22 16 20 24 22 14 15 15 16 16 20 21 21 20 19 17 19 19 21 22 24 23 24 24 25 27 30 32 31 32 32 30 28 25 27 30 28 27 27
13 19 24 28 27 26 22 20 24 25 25 22 19 25 21 15 14 15 16 17 18 19 18 19 19 20 18 17 19 21 22 23 23 24 26 27 28 30 30 30 26 26 25 25 26 30 29 29 28
9 22 28 25 25 23 21 20 22 21 22 20 21 22 26 16 13 14 14 15 17 16 18 20 19 22 23 21 18 21 22 21 21 23 22 26 26 27 26 27 27 24 22 23 26 29 30 28 28
8 26 26 24 26 25 25 23 21 16 22 16 19 20 20 15 13 13 13 15 16 20 19 19 22 24 23 21 20 20 17 16 20 18 15 18 18 21 21 23 23 22 20 21 24 28 29 29 29
11 20 19 26 28 26 28 30 29 18 17 13 16 16 17 13 12 12 12 15 17 21 21 22 21 22 22 21 20 19 19 20 21 20 16 15 19 21 22 20 19 21 20 21 23 27 29 30 29
11 13 14 20 19 20 27 26 21 19 16 21 18 16 8 11 10 10 12 15 21 21 21 23 22 21 22 21 22 18 19 20 15 16 13 12 16 17 16 19 16 19 21 25 23 27 29 30 28
14 11 16 7 7 15 19 21 19 15 16 21 21 18 11 8 8 7 10 14 15 21 22 22 21 22 20 20 21 18 18 15 11 12 11 10 11 16 16 15 16 18 22 24 24 27 25 31 27
11 10 9 9 13 14 14 15 15 14 18 19 17 14 10 9 7 6 8 10 15 19 22 21 22 22 20 21 17 16 14 10 12 12 12 8 11 14 14 17 26 18 23 24 23 28 28 23 28
10 14 11 16 14 13 12 13 11 12 13 16 14 11 11 5 3 5 7 9 14 18 21 21 22 21 20 20 15 12 10 8 9 12 13 11 7 9 11 17 20 22 23 26 23 27 25 25 28
12 18 18 18 15 14 12 14 14 8 9 13 12 6 3 2 2 2 5 9 14 17 20 21 20 20 19 15 13 12 10 9 11 12 13 7 6 7 8 14 15 8 3 24 27 27 21 25 29
12 14 20 14 11 9 11 15 12 10 11 17 13 3 4 2 1 3 6 10 12 16 19 20 21 21 21 19 16 12 11 10 10 11 11 6 12 8 10 11 12 7 8 29 23 23 22 25 27
12 17 17 16 8 10 9 17 16 12 16 19 17 7 5 2 1 3 5 8 11 16 18 19 21 20 21 17 15 13 13 10 9 9 8 6 15 13 11 13 7 9 12 27 20 23 22 25 27
17 14 12 15 8 7 10 13 10 11 13 15 12 9 7 2 1 2 4 8 11 15 16 18 19 18 21 14 15 17 15 14 13 12 9 9 15 17 15 16 16 5 13 24 23 21 20 24 23
17 18 19 16 17 10 12 10 13 29 24 18 14 11 8 2 1 2 4 7 10 14 14 17 18 18 18 13 22 21 22 20 20 17 10 10 17 19 17 17 16 4 25 24 19 21 23 27 19
14 13 12 16 17 13 8 26 23 23 12 18 14 8 7 1 2 2 3 5 8 12 14 15 17 18 18 21 19 19 20 22 23 26 21 14 17 18 19 20 22 25 14 21 22 21 25 22 23
18 12 9 9 13 5 7 20 12 8 14 13 11 8 4 2 4 2 3 5 7 11 12 15 17 18 19 20 18 19 16 16 16 18 25 21 16 18 21 24 26 24 29 25 25 24 23 23 21
17 9 9 23 7 8 6 10 15 6 11 13 6 5 3 3 5 4 5 6 7 10 12 14 16 17 18 22 18 13 15 14 15 16 16 16 19 19 21 25 27 30 30 23 28 25 24 22 22
16 13 13 7 8 14 9 9 10 11 7 13 11 4 4 5 6 7 8 7 8 10 11 13 15 16 18 21 20 24 22 20 16 17 19 20 22 20 20 26 29 29 24 24 26 24 23 22 16
10 10 9 19 4 14 7 6 7 12 12 14 15 13 7 5 6 7 7 8 9 10 11 12 14 15 16 19 20 22 23 22 23 20 18 20 17 20 22 21 20 24 26 25 25 22 19 15 18
11 7 6 8 9 8 2 3 10 14 12 12 15 13 9 6 7 9 11 10 9 10 11 12 13 14 15 18 19 18 21 27 29 25 24 17 19 18 22 25 23 12 19 20 18 16 13 15 15
13 12 10 4 2 3 5 9 13 10 12 11 12 14 9 7 10 13 13 11 11 11 11 12 13 14 14 17 18 19 20 28 28 27 25 22 21 13 19 27 27 27 13 12 10 10 10 13 15
12 22 16 23 31 21 7 8 9 10 8 9 10 12 9 9 13 14 13 13 13 12 12 13 13 14 14 15 17 18 21 24 24 25 25 25 21 18 17 14 4 27 9 8 8 9 8 10 11
17 9 13 11 8 9 5 7 9 8 10 13 11 10 10 13 13 12 13 14 14 13 13 14 14 14 15 16 17 17 19 21 22 22 23 24 12 4 21 7 4 10 3 10 9 9 10 13 13
20 24 10 18 6 6 8 8 9 7 10 12 12 11 12 13 15 13 15 15 16 14 15 15 15 15 16 15 17 18 19 21 22 23 26 24 27 4 14 13 11 10 9 13 14 14 5 12 19
20 22 16 8 11 10 6 11 11 7 7 10 11 11 12 14 14 14 16 16 17 16 16 16 16 16 16 16 17 19 19 21 22 23 25 26 26 6 3 14 22 19 20 14 27 31 21 15 7
Wind_Direction
85 92 88 58 4 11 349 345 355 345 351 348 343 336 332 332 340 338 6 4 359 0 1 1 3 356 347 341 338 337 335 333 332 329 325 323 323 320 315 309 305 302 299 293 288 282 284 281 275
78 67 55 17 345 337 354 348 346 341 338 342 341 341 342 338 346 351 359 10 8 1 357 350 2 353 346 341 338 336 334 332 330 327 321 319 317 314 310 306 302 297 292 290 286 285 281 280 276
64 57 358 343 332 326 327 348 335 341 338 341 345 341 340 344 350 350 3 7 3 360 358 357 355 352 347 342 339 336 333 330 327 323 318 315 312 308 304 302 297 295 288 284 281 281 281 278 275
47 25 6 344 330 339 339 326 332 331 343 334 332 336 349 2 357 4 7 4 360 357 354 357 356 351 346 343 339 335 332 328 324 320 316 313 309 304 298 296 294 290 284 279 275 275 277 274 270
45 0 335 326 331 334 337 328 331 332 335 343 342 336 338 359 7 7 5 2 357 349 346 350 354 351 349 345 341 337 333 329 326 322 319 315 311 306 301 294 288 283 281 276 271 270 271 273 266
350 353 327 324 337 342 343 338 335 331 329 339 332 331 336 12 7 6 4 1 353 348 351 355 359 359 355 348 342 337 334 331 328 324 320 315 309 303 301 294 286 281 277 277 270 265 268 269 265
327 323 314 316 319 322 334 342 329 324 325 327 341 328 338 349 8 4 1 1 359 357 2 3 359 354 352 351 348 343 338 334 331 327 321 315 310 304 298 293 287 280 274 272 268 263 264 264 263
326 317 310 314 316 322 325 337 331 330 331 333 334 334 334 353 10 5 2 4 3 6 5 0 360 351 349 349 350 346 342 338 336 333 329 321 314 306 300 292 283 278 271 269 265 260 259 260 258
323 307 307 312 315 318 322 326 338 336 328 332 336 333 343 356 5 2 2 1 1 359 2 3 357 352 352 349 347 347 347 346 344 346 347 340 333 320 311 297 285 273 266 266 265 259 257 256 253
298 303 308 312 313 318 317 315 317 330 334 334 332 335 344 2 3 359 359 359 358 357 360 359 359 355 354 354 352 349 349 350 345 348 353 349 334 324 312 307 293 272 261 263 264 257 253 249 247
276 289 310 317 325 329 323 323 333 332 333 337 337 343 349 357 4 5 2 1 356 2 2 -0 359 360 357 356 354 355 356 353 357 355 359 358 343 334 324 305 292 274 260 256 258 255 249 243 243
278 235 228 289 298 323 329 335 337 342 332 334 333 341 354 1 6 14 10 6 13 1 3 5 3 1 1 0 357 2 2 7 9 7 9 9 359 342 333 316 291 274 256 251 250 247 248 239 240
246 244 256 265 312 317 328 329 331 342 339 335 341 343 352 349 0 20 26 25 10 6 5 6 4 4 6 3 8 9 13 19 18 15 12 21 9 1 353 319 267 274 255 244 246 243 242 242 238
244 224 289 310 308 313 320 322 336 344 356 344 341 344 342 357 7 29 30 24 14 9 7 7 7 8 9 8 13 20 25 27 25 20 16 17 54 42 21 316 282 266 253 239 238 239 241 237 230
246 292 296 301 303 303 311 309 304 332 342 339 342 333 338 351 30 66 39 22 13 11 10 10 11 14 15 19 23 26 26 32 23 18 17 54 65 109 89 339 292 287 201 235 229 234 238 228 226
280 272 294 298 278 300 310 306 323 323 324 330 335 301 333 336 66 60 31 20 17 13 10 12 13 15 15 18 26 36 36 36 32 31 23 355 184 140 123 16 306 292 251 218 227 230 230 225 225
255 286 291 304 311 304 295 309 323 338 328 325 329 321 321 337 31 56 44 32 20 14 14 14 16 20 16 26 38 48 44 54 62 58 55 130 190 165 133 118 357 275 249 221 229 228 228 222 222
269 277 280 307 295 311 300 300 299 320 320 320 312 319 320 294 185 75 46 30 23 17 18 18 21 25 20 40 51 50 62 71 69 71 103 132 179 179 157 154 119 289 248 228 228 225 224 219 222
278 293 303 310 321 307 310 294 253 315 318 316 311 310 317 279 134 93 45 31 27 18 24 22 25 30 38 58 21 30 31 60 62 61 94 152 187 182 156 132 105 265 210 219 225 221 218 219 218
234 276 285 302 311 318 243 247 250 313 284 322 316 307 321 252 153 99 47 44 32 25 28 30 31 31 38 29 43 50 38 46 59 50 69 107 123 150 151 136 134 150 232 219 219 217 214 218 219
207 228 269 290 313 303 280 250 253 335 335 335 337 337 349 175 159 126 74 78 49 33 37 38 34 36 44 39 63 60 57 59 63 67 55 68 118 122 145 151 178 188 183 203 209 215 218 219 220
211 248 230 297 236 240 222 284 338 337 356 349 341 346 350 122 141 132 120 101 66 43 48 45 41 35 47 33 61 73 59 54 55 68 75 85 92 115 146 161 169 180 191 208 201 210 216 216 218
210 281 289 291 226 226 236 320 337 355 359 9 5 11 66 111 133 131 127 108 78 53 57 53 52 47 45 40 59 38 41 50 62 63 65 71 76 100 123 164 183 196 212 210 209 212 217 218 218
220 268 285 299 234 225 251 295 328 357 17 11 6 10 50 91 117 125 113 101 82 68 67 64 63 50 52 50 61 56 57 50 41 62 91 86 108 86 107 108 216 213 208 210 209 214 216 215 209
246 245 225 202 209 225 258 335 341 342 2 12 1 6 32 73 107 122 124 114 94 85 77 75 74 54 60 53 70 77 65 52 52 54 81 110 103 110 114 121 161 228 214 211 213 213 206 200 193
208 203 190 213 275 321 38 358 10 16 14 18 9 355 37 74 112 125 124 115 106 97 88 84 81 66 68 51 74 79 78 48 52 76 84 95 110 143 146 118 135 157 209 206 205 194 190 185 190
225 197 195 209 248 309 347 3 352 3 31 72 50 14 45 89 113 122 120 117 113 104 94 93 77 72 76 62 82 90 74 62 75 78 81 75 110 137 155 169 217 134 189 186 187 183 179 185 196
212 214 197 206 257 291 302 354 9 70 58 43 54 55 64 102 111 113 118 119 117 108 96 102 89 83 87 78 96 96 85 77 81 91 85 70 60 224 150 197 113 170 161 182 180 177 193 198 208
199 196 211 278 225 303 325 352 27 55 44 35 69 84 103 111 117 111 120 119 121 111 109 111 107 92 93 77 89 104 84 87 96 98 67 95 73 263 174 182 183 174 175 180 178 186 140 213 212
213 202 204 228 195 283 299 345 24 51 57 70 77 80 107 121 117 112 122 121 125 119 112 115 115 104 105 90 83 104 92 104 107 106 87 88 105 9 227 183 163 173 166 183 155 137 192 173 221